Location: Bishop�s Knoyle
(51.0728°N, 2.1714°W)
Time: 12:46:49
(UTC+00:00)

Cosmos 372 Rocket - Pass Details

Date: 18 September 2020
Orbit: 739 x 767 km, 74.1° (Epoch: 23 October)

Event Time Altitude Azimuth Distance (km) Brightness Sun altitude
Rises 20:25:02 0° 214° (SSW) 3,225 7.3 -20.3°
Reaches altitude 10° 20:27:26 10° 218° (SW) 2,302 6.5 -20.6°
Maximum altitude 20:32:37 61° 298° (WNW) 868 4.5 -21.3°
Drops below altitude 10° 20:37:48 10° 19° (NNE) 2,305 6.6 -22.0°
Sets 20:40:13 0° 23° (NNE) 3,230 7.4 -22.3°
